Wind_Speed
18 19 19 19 20 20 20 20 20 21 22 22 23 25 24 25 25 25 25 25 25 25 27 27 27 29 31 31 32 33 34 35 37 37 37 38 39 40 40 41 42 44 45 47
17 17 17 18 18 18 19 20 20 20 22 21 21 24 25 25 25 25 25 25 25 25 26 27 28 29 31 32 34 35 36 37 38 39 40 40 41 42 43 44 45 47 49 50
15 15 16 17 17 18 19 20 20 20 20 21 21 23 25 25 25 25 25 25 26 26 26 27 28 29 31 32 34 35 37 38 39 41 42 42 43 44 45 47 48 50 52 53
14 15 16 17 18 19 19 20 21 21 21 20 21 21 25 26 25 25 25 25 26 26 27 28 29 30 31 33 34 35 37 39 40 42 43 44 45 46 47 49 51 52 54 55
14 15 16 17 18 19 20 21 21 22 22 21 21 21 23 26 26 26 26 26 26 27 27 28 29 31 32 33 35 36 38 40 41 43 45 46 47 49 51 52 53 54 56 57
16 16 17 18 19 20 21 22 23 23 23 22 21 22 22 25 27 29 29 29 28 28 28 29 31 32 33 34 36 38 40 42 44 45 47 48 50 51 53 54 56 57 58 59
17 17 18 19 20 21 22 24 25 26 25 25 24 24 24 27 29 31 32 32 31 31 31 31 32 33 35 36 38 40 42 44 46 48 49 51 52 54 55 56 58 59 60 61
19 18 18 20 21 23 24 25 26 28 28 27 25 25 25 28 31 33 35 35 34 33 32 33 34 36 37 39 41 42 44 46 48 49 51 52 54 55 56 58 60 61 63 63
20 20 19 21 23 24 25 26 27 30 31 32 30 28 26 28 32 36 38 38 36 34 34 35 36 38 40 41 43 44 46 47 49 51 52 54 55 57 58 59 61 61 62 63
22 22 21 22 24 26 27 28 29 31 33 36 34 32 30 32 34 36 38 39 38 37 37 38 39 40 41 42 43 45 47 48 50 52 53 55 56 58 58 59 60 60 61 62
24 25 24 24 25 27 27 28 30 32 33 36 37 33 31 33 34 36 38 38 38 37 38 38 39 40 41 42 43 45 46 48 49 51 52 54 55 57 58 58 59 60 60 61
26 27 26 26 28 29 29 29 30 32 33 35 37 35 32 34 37 38 38 38 37 37 38 38 39 41 42 43 44 45 46 47 49 50 51 53 54 55 56 57 58 58 59 59
28 29 29 28 30 31 30 29 29 32 34 34 36 35 33 35 38 39 39 39 39 39 40 41 42 43 44 45 46 47 48 49 50 51 52 53 54 55 55 56 57 57 58 58
30 30 30 29 29 32 32 30 31 33 35 36 35 35 33 35 37 38 39 40 41 42 42 43 44 45 46 47 48 50 51 52 52 53 54 54 55 56 56 56 57 57 58 59
32 30 29 29 29 30 30 29 30 33 35 38 36 36 36 37 38 39 40 42 43 44 45 46 47 48 49 50 52 53 54 54 55 55 55 56 56 56 57 57 57 57 58 59
31 31 30 29 29 31 30 29 31 33 35 37 37 37 38 39 40 41 43 45 47 47 48 50 51 52 53 54 55 55 56 56 57 57 57 57 57 57 58 58 57 58 59 59
29 31 32 30 30 31 30 30 32 33 34 36 37 39 40 42 43 45 46 49 50 51 52 53 55 56 57 58 59 59 59 59 59 59 59 59 59 60 59 59 59 59 59 59
30 31 33 33 32 32 30 31 33 35 36 38 40 42 44 46 47 48 50 53 54 56 57 58 59 60 61 61 62 62 63 63 62 62 62 61 61 61 61 60 60 60 59 59
29 31 34 34 35 35 32 34 37 40 41 42 44 46 47 49 51 52 54 57 58 60 62 63 64 65 65 66 66 66 66 65 65 64 63 62 62 62 61 60 60 60 60 59
28 31 34 36 38 38 37 39 42 45 47 48 49 51 53 55 57 57 59 61 63 65 66 67 68 69 69 70 70 69 67 66 65 64 63 62 62 62 61 61 61 60 60 59
30 32 34 37 41 41 42 45 47 49 51 53 55 57 58 60 62 64 65 67 69 70 71 72 72 73 72 72 71 70 68 66 65 64 63 62 62 62 61 61 60 60 59 59
34 35 37 39 42 44 47 49 51 53 55 57 59 61 62 64 66 68 70 72 73 74 75 75 75 74 73 72 71 69 67 66 64 63 62 61 61 61 61 60 59 59 59 58
36 37 40 44 46 48 51 54 56 58 60 62 63 65 67 69 70 72 74 75 76 77 77 76 76 74 72 70 69 68 65 64 62 61 61 60 60 59 59 59 58 57 57 57
39 40 44 48 49 51 54 57 59 61 63 65 67 69 71 73 75 76 77 78 78 77 76 75 73 71 68 67 66 65 63 62 61 60 59 58 57 57 56 56 56 56 55 55
42 46 50 53 54 57 59 61 63 65 67 69 71 73 75 77 77 78 79 78 77 75 73 71 69 67 65 63 62 62 61 60 59 58 57 56 55 54 53 53 53 53 53 54
45 51 56 57 59 61 62 64 66 68 70 72 74 75 77 78 78 78 77 75 73 71 69 67 65 63 61 60 59 59 58 58 56 55 54 53 52 52 51 50 50 50 51 52
Wind_Direction
285 286 287 289 291 293 295 298 300 302 304 307 306 305 304 303 303 302 300 297 294 291 287 285 282 279 277 276 275 274 274 275 276 278 278 279 280 281 282 283 284 284 285 287
287 289 291 292 294 297 299 300 303 304 306 307 307 306 305 305 305 304 303 300 298 295 292 289 286 283 281 279 279 278 277 277 278 279 279 280 281 281 282 283 283 284 285 286
291 293 294 295 297 300 302 303 305 306 308 310 310 309 307 306 307 306 305 302 300 298 295 293 290 287 284 283 282 282 281 280 280 280 281 281 281 282 283 282 282 283 285 286
292 295 296 297 299 301 303 305 307 308 310 312 313 314 311 311 311 309 306 304 302 300 298 295 293 290 288 286 285 283 283 282 282 282 282 282 283 283 282 282 283 284 285 286
290 293 295 298 300 303 305 306 308 310 312 313 312 312 312 311 311 309 307 306 304 303 301 298 295 292 290 288 286 285 284 283 283 283 283 283 284 283 283 283 284 284 285 286
291 294 296 298 301 303 305 307 308 308 308 308 310 314 316 313 311 308 307 307 307 305 302 298 296 293 290 288 287 286 285 285 284 284 284 284 284 284 284 284 284 285 285 286
287 290 296 298 300 303 305 307 307 309 311 313 316 318 318 312 309 307 307 307 308 306 302 299 296 293 291 289 288 287 286 285 285 285 285 285 285 285 286 286 286 286 286 286
287 290 294 297 300 303 305 307 308 309 310 310 312 314 315 310 307 305 305 305 307 306 304 301 298 295 292 291 289 288 287 287 286 286 286 286 286 286 286 286 286 286 287 287
288 291 295 298 301 303 304 305 306 306 306 306 308 310 310 307 306 306 306 308 310 310 308 304 300 298 296 294 292 291 289 288 288 287 287 287 286 286 287 287 287 287 288 288
287 291 294 297 299 300 301 304 305 305 306 307 309 313 317 314 310 308 308 311 314 313 310 307 304 301 298 296 294 293 291 290 289 289 288 288 288 288 288 288 288 288 288 288
287 290 294 295 295 296 297 300 302 303 304 305 307 312 318 311 309 307 308 311 312 311 309 307 305 303 301 299 298 296 295 294 292 292 291 290 289 289 289 289 289 289 289 290
288 291 293 296 296 296 297 300 301 302 303 305 306 313 315 310 307 308 311 313 313 312 311 310 309 307 306 305 303 302 300 299 297 296 295 293 293 292 291 291 290 290 290 291
287 290 293 294 295 295 298 301 303 302 302 303 305 310 312 308 307 311 313 314 314 313 313 312 310 309 308 307 305 304 303 302 300 299 297 296 295 294 293 293 293 292 292 292
286 289 292 294 296 297 299 303 304 302 303 303 306 308 309 306 307 311 312 312 311 311 311 311 310 309 308 307 306 305 304 303 302 300 299 298 297 296 296 295 295 294 293 293
286 288 289 291 292 293 296 301 300 300 302 303 306 307 308 307 309 310 310 309 309 309 309 309 308 308 308 307 306 305 304 303 302 301 300 299 299 298 298 297 296 295 294 294
285 288 288 290 292 293 297 299 297 298 299 301 304 306 306 308 309 309 309 308 308 308 308 307 306 306 306 305 305 304 304 303 302 301 300 299 299 298 298 297 296 295 295 294
282 286 288 290 291 292 297 298 298 298 299 301 303 305 306 307 308 308 308 307 307 307 306 305 305 305 305 305 305 305 304 303 302 301 300 299 298 298 297 296 296 295 295 295
285 287 289 291 291 293 299 299 298 298 299 301 302 303 305 306 306 307 307 306 306 306 305 305 305 305 305 304 304 304 303 303 302 301 300 299 298 298 297 296 296 295 295 295
285 287 289 292 293 295 299 298 298 298 300 301 302 303 304 304 305 306 305 305 305 305 305 305 305 304 304 304 304 303 303 302 302 301 299 299 298 297 296 296 296 295 295 295
282 285 288 292 294 297 301 299 299 300 300 301 303 303 304 304 304 304 304 304 304 304 304 304 304 304 304 303 303 303 303 302 301 300 299 298 297 297 296 296 296 295 295 295
282 285 288 291 293 297 298 297 298 299 301 302 303 304 305 305 305 304 304 304 304 304 303 303 303 303 303 303 303 303 302 302 301 300 299 298 297 297 297 297 297 297 296 297
284 286 289 290 292 296 296 297 298 299 301 302 303 303 303 303 303 303 303 303 302 302 303 303 303 303 303 303 303 302 302 301 301 300 299 298 298 297 297 298 298 298 298 298
284 288 290 291 292 293 295 296 298 299 301 302 302 302 302 302 302 302 302 302 302 303 303 303 303 303 303 303 302 302 302 301 300 299 299 298 298 298 299 299 299 299 299 299
286 288 288 288 289 291 293 295 297 298 299 300 300 301 301 301 301 302 302 303 303 303 303 303 303 303 303 303 302 302 301 301 301 300 300 299 299 299 300 300 300 300 301 301
290 289 287 288 291 292 294 296 297 298 299 299 300 300 301 301 302 302 303 303 303 303 303 303 303 304 303 303 303 302 302 302 301 301 302 302 302 302 302 302 302 303 303 304
289 287 288 291 293 294 296 296 297 298 299 299 300 300 301 301 302 302 302 303 303 304 304 304 304 304 304 304 303 303 303 303 303 303 304 304 304 304 304 304 305 305 306 306
Height
5829 5830 5829 5828 5828 5828 5827 5826 5825 5824 5823 5822 5819 5816 5815 5813 5811 5810 5808 5806 5805 5804 5802 5801 5801 5800 5799 5798 5797 5796 5795 5793 5791 5790 5789 5787 5785 5783 5782 5779 5776 5773 5770 5767
5826 5826 5825 5824 5824 5823 5823 5822 5821 5821 5818 5817 5815 5812 5810 5808 5806 5805 5803 5801 5800 5798 5797 5795 5795 5793 5792 5791 5790 5788 5787 5786 5784 5782 5780 5779 5777 5775 5772 5769 5766 5763 5760 5756
5822 5823 5821 5820 5820 5820 5819 5818 5817 5816 5814 5812 5811 5808 5805 5803 5801 5799 5798 5796 5794 5792 5791 5789 5788 5787 5785 5784 5782 5781 5779 5778 5776 5773 5771 5769 5767 5765 5762 5759 5755 5752 5748 5745
5819 5819 5818 5817 5816 5815 5815 5813 5812 5810 5809 5808 5807 5805 5800 5797 5796 5794 5792 5790 5789 5787 5785 5783 5781 5780 5778 5776 5774 5772 5770 5768 5766 5764 5761 5759 5756 5754 5751 5747 5744 5740 5736 5732
5816 5815 5814 5813 5812 5811 5810 5809 5808 5806 5804 5804 5802 5800 5798 5793 5790 5788 5787 5785 5783 5781 5779 5777 5775 5772 5770 5768 5766 5764 5761 5759 5756 5754 5751 5748 5745 5742 5738 5735 5731 5728 5724 5719
5812 5811 5811 5810 5808 5807 5805 5805 5803 5802 5800 5800 5797 5795 5794 5789 5786 5782 5780 5779 5777 5776 5773 5770 5768 5765 5762 5760 5757 5754 5751 5749 5746 5743 5740 5736 5733 5729 5725 5722 5718 5714 5710 5706
5809 5808 5806 5805 5804 5803 5801 5800 5798 5796 5794 5793 5792 5790 5788 5784 5780 5777 5774 5772 5771 5769 5766 5763 5760 5757 5754 5751 5748 5745 5741 5738 5734 5731 5727 5724 5720 5716 5712 5708 5703 5699 5695 5691
5803 5804 5803 5801 5800 5798 5796 5795 5793 5790 5788 5788 5787 5785 5784 5778 5773 5770 5767 5765 5764 5761 5758 5755 5751 5748 5745 5741 5738 5734 5731 5727 5723 5719 5715 5710 5706 5702 5698 5693 5688 5683 5679 5675
5798 5798 5798 5796 5794 5793 5791 5789 5787 5785 5782 5780 5780 5780 5778 5773 5767 5762 5759 5757 5755 5753 5750 5746 5742 5738 5735 5731 5727 5723 5719 5715 5710 5706 5702 5697 5692 5688 5683 5678 5673 5668 5663 5658
5793 5793 5793 5792 5790 5787 5786 5783 5781 5778 5775 5772 5771 5771 5769 5764 5760 5756 5751 5748 5746 5743 5740 5736 5732 5728 5724 5720 5716 5711 5707 5702 5698 5693 5688 5684 5679 5674 5669 5664 5659 5653 5648 5642
5787 5787 5787 5787 5785 5782 5781 5779 5775 5772 5769 5765 5762 5766 5763 5757 5753 5749 5745 5742 5738 5735 5731 5727 5722 5718 5713 5709 5704 5699 5695 5690 5685 5680 5675 5670 5664 5659 5654 5649 5644 5638 5633 5627
5781 5780 5780 5780 5777 5775 5773 5771 5769 5766 5763 5758 5754 5758 5755 5749 5744 5740 5737 5734 5730 5726 5722 5717 5713 5708 5703 5698 5693 5688 5683 5678 5672 5667 5661 5656 5650 5645 5639 5634 5629 5623 5618 5612
5774 5774 5773 5772 5772 5768 5766 5764 5762 5758 5755 5752 5748 5751 5747 5742 5736 5732 5729 5725 5720 5716 5712 5708 5703 5698 5693 5687 5682 5676 5671 5665 5660 5654 5648 5642 5636 5630 5624 5619 5613 5608 5602 5597
5767 5767 5766 5765 5763 5759 5757 5757 5754 5750 5747 5744 5742 5740 5739 5734 5729 5725 5721 5716 5712 5707 5703 5698 5693 5688 5682 5677 5671 5665 5659 5653 5647 5641 5634 5628 5622 5616 5610 5604 5598 5592 5586 5580
5759 5759 5758 5757 5755 5753 5751 5750 5747 5743 5739 5736 5734 5732 5729 5725 5721 5718 5713 5708 5703 5699 5694 5688 5683 5677 5671 5665 5659 5653 5646 5640 5633 5627 5620 5614 5607 5601 5595 5588 5582 5576 5570 5564
5751 5751 5750 5749 5748 5745 5744 5743 5740 5736 5733 5729 5726 5724 5720 5716 5712 5708 5703 5698 5693 5688 5683 5677 5671 5665 5659 5653 5646 5639 5633 5626 5619 5612 5606 5599 5592 5586 5579 5573 5566 5560 5554 5548
5745 5743 5741 5741 5739 5737 5738 5735 5731 5728 5725 5722 5718 5716 5711 5707 5703 5698 5693 5687 5682 5677 5671 5665 5659 5652 5645 5639 5632 5625 5618 5611 5604 5597 5590 5583 5576 5570 5563 5557 5550 5544 5537 5531
5737 5735 5732 5731 5731 5730 5732 5727 5723 5719 5717 5713 5709 5705 5701 5697 5693 5688 5682 5676 5670 5664 5658 5651 5644 5638 5631 5624 5617 5610 5602 5595 5588 5581 5574 5566 5559 5553 5546 5539 5533 5526 5520 5514
5729 5726 5724 5722 5720 5720 5722 5718 5713 5709 5706 5703 5699 5695 5691 5687 5682 5677 5670 5663 5656 5650 5643 5636 5629 5622 5615 5607 5600 5593 5586 5578 5570 5563 5556 5549 5541 5535 5529 5522 5516 5509 5503 5497
5721 5719 5717 5714 5710 5710 5712 5706 5701 5698 5695 5692 5687 5683 5678 5673 5668 5664 5656 5649 5642 5635 5627 5620 5613 5605 5598 5590 5582 5575 5568 5560 5553 5546 5539 5531 5523 5517 5511 5504 5498 5491 5485 5479
5713 5711 5709 5705 5700 5700 5699 5694 5690 5688 5684 5679 5674 5669 5664 5658 5652 5647 5639 5632 5625 5617 5610 5602 5595 5587 5579 5571 5563 5557 5549 5542 5535 5528 5521 5513 5506 5499 5492 5486 5480 5473 5467 5461
5703 5702 5700 5696 5693 5693 5686 5682 5679 5675 5671 5666 5661 5655 5650 5644 5637 5630 5623 5615 5608 5600 5592 5584 5576 5569 5560 5551 5543 5538 5531 5523 5516 5509 5502 5495 5488 5481 5475 5469 5462 5455 5449 5443
5694 5693 5690 5686 5684 5680 5674 5670 5665 5661 5657 5652 5646 5641 5634 5628 5621 5614 5606 5598 5590 5581 5573 5564 5557 5550 5542 5532 5524 5517 5512 5505 5498 5492 5485 5478 5471 5464 5457 5451 5445 5438 5431 5425
5684 5682 5678 5674 5672 5668 5663 5658 5654 5649 5644 5638 5631 5625 5617 5610 5603 5596 5587 5579 5571 5562 5553 5545 5537 5531 5524 5516 5507 5499 5493 5487 5481 5474 5468 5461 5454 5448 5441 5434 5428 5421 5415 5408
5674 5669 5663 5660 5658 5655 5651 5645 5640 5635 5628 5622 5615 5607 5599 5592 5585 5577 5569 5560 5552 5543 5535 5527 5519 5512 5506 5499 5492 5483 5476 5470 5464 5458 5451 5445 5438 5432 5426 5419 5412 5405 5399 5391
5660 5654 5650 5648 5645 5640 5636 5630 5624 5618 5612 5605 5598 5591 5583 5574 5566 5558 5550 5542 5534 5526 5518 5511 5503 5496 5489 5483 5476 5468 5461 5454 5448 5442 5436 5430 5423 5417 5411 5405 5399 5391 5384 5377